Weather History for KBPC - April, 2013

Change the Weather History Date:

Thursday, April 18, 2013

  Actual Average Record
Temperature  
Mean Temperature 38 °F -  
Max Temperature 46 °F - - ()
Min Temperature 30 °F - - ()
Degree Days  
Heating Degree Days 27    
Moisture  
Dew Point 23 °F    
Average Humidity 63    
Maximum Humidity 100    
Minimum Humidity 29    
Precipitation  
Precipitation 0.00 in - - ()
Sea Level Pressure  
Sea Level Pressure 30.06 in    
Wind  
Wind Speed 20 mph (NNW)    
Max Wind Speed 28 mph    
Max Gust Speed 36 mph    
Visibility 10 miles    
Events Snow    
Averages and records for this station are not official NWS values.
T = Trace of Precipitation, MM = Missing Value Source: NWS Daily Summary

Daily Weather History Graph

Daily Weather History Graph

Search for Another Location

Airport or City:

Trip Planner

Search our weather history database for the weather conditions in past years. The results will help you decide how hot, cold, wet, or windy it might be!

Date:

Astronomy

Apr. 18, 2013 Rise Set
Actual Time 7:06 AM CDT 8:20 PM CDT
Civil Twilight 6:40 AM CDT 8:47 PM CDT
Nautical Twilight 6:08 AM CDT 9:18 PM CDT
Astronomical Twilight 5:35 AM CDT 9:51 PM CDT
Moon 1:22 PM CDT (4/18) 2:33 AM CDT (4/18)
Length of Visible Light 14h 06m
Length of Day
13h 13m
First Quarter, 52% of the Moon is Illuminated
Apr 18
First Quarter
Apr 25
Full
May 2
Last Quarter
May 9
New
May 17
First Quarter

Hourly Weather History & Observations

Time (CDT) Temp. Windchill Dew Point Humidity Pressure Visibility Wind Dir Wind Speed Gust Speed Precip Events Conditions
12:15 AM 35.6 °F 25.5 °F 33.8 °F 93% 29.92 in 10.0 mi North 17.3 mph 27.6 mph N/A   Overcast
12:55 AM 35.6 °F 24.8 °F 33.8 °F 93% 29.94 in 10.0 mi North 19.6 mph 27.6 mph N/A   Overcast
1:15 AM 33.8 °F 21.6 °F 32.0 °F 93% 29.93 in 10.0 mi North 23.0 mph 33.4 mph N/A   Overcast
1:35 AM 33.8 °F 21.9 °F 32.0 °F 93% 29.93 in 10.0 mi North 21.9 mph 32.2 mph N/A   Overcast
1:55 AM 33.8 °F 21.3 °F 32.0 °F 93% 29.93 in 10.0 mi North 24.2 mph 31.1 mph N/A   Overcast
2:15 AM 32.0 °F 19.8 °F 32.0 °F 100% 29.95 in 7.0 mi North 20.7 mph 26.5 mph N/A Snow Light Snow
2:35 AM 33.8 °F 22.8 °F 30.2 °F 87% 29.97 in 10.0 mi North 18.4 mph 29.9 mph N/A   Overcast
2:55 AM 32.0 °F 18.1 °F 30.2 °F 93% 29.96 in 10.0 mi North 27.6 mph 33.4 mph N/A   Overcast
3:15 AM 32.0 °F 19.2 °F 30.2 °F 93% 29.95 in 10.0 mi North 23.0 mph 35.7 mph N/A   Overcast
3:35 AM 32.0 °F 19.5 °F 28.4 °F 87% 29.94 in 10.0 mi North 21.9 mph 29.9 mph N/A   Overcast
3:55 AM 32.0 °F 19.8 °F 28.4 °F 87% 29.97 in 10.0 mi NNW 20.7 mph 31.1 mph N/A   Overcast
4:15 AM 32.0 °F 21.6 °F 28.4 °F 87% 29.97 in 10.0 mi North 15.0 mph 28.8 mph N/A   Overcast
4:35 AM 32.0 °F 18.9 °F 26.6 °F 80% 29.98 in 10.0 mi NNW 24.2 mph 33.4 mph N/A   Overcast
4:55 AM 32.0 °F 19.2 °F 26.6 °F 80% 29.97 in 10.0 mi North 23.0 mph 32.2 mph N/A   Overcast
5:15 AM 32.0 °F 20.1 °F 26.6 °F 80% 29.97 in 10.0 mi NNW 19.6 mph 33.4 mph N/A   Overcast
5:35 AM 32.0 °F 18.9 °F 26.6 °F 80% 29.98 in 10.0 mi NNW 24.2 mph 28.8 mph N/A   Overcast
5:55 AM 32.0 °F 19.2 °F 26.6 °F 80% 29.99 in 10.0 mi NNW 23.0 mph 31.1 mph N/A   Overcast
6:15 AM 30.2 °F 18.5 °F 26.6 °F 86% 30.00 in 10.0 mi NNW 17.3 mph 29.9 mph N/A   Overcast
6:35 AM 30.2 °F 18.9 °F 24.8 °F 80% 30.02 in 10.0 mi NNW 16.1 mph 27.6 mph N/A   Overcast
6:55 AM 30.2 °F 18.5 °F 24.8 °F 80% 30.04 in 10.0 mi NNW 17.3 mph 27.6 mph N/A   Mostly Cloudy
7:15 AM 30.2 °F 18.1 °F 24.8 °F 80% 30.05 in 10.0 mi NNW 18.4 mph 24.2 mph N/A   Scattered Clouds
7:35 AM 30.2 °F 18.1 °F 24.8 °F 80% 30.07 in 10.0 mi NNW 18.4 mph 24.2 mph N/A   Clear
7:55 AM 30.2 °F 18.9 °F 24.8 °F 80% 30.07 in 10.0 mi NNW 16.1 mph 24.2 mph N/A   Clear
8:15 AM 30.2 °F 18.9 °F 24.8 °F 80% 30.08 in 10.0 mi North 16.1 mph 25.3 mph N/A   Clear
8:55 AM 32.0 °F 21.2 °F 24.8 °F 75% 30.09 in 10.0 mi North 16.1 mph 24.2 mph N/A   Scattered Clouds
9:15 AM 32.0 °F 19.5 °F 24.8 °F 75% 30.09 in 10.0 mi North 21.9 mph 29.9 mph N/A   Mostly Cloudy
9:35 AM 32.0 °F 19.8 °F 24.8 °F 75% 30.09 in 10.0 mi North 20.7 mph 29.9 mph N/A   Overcast
9:55 AM 32.0 °F 19.8 °F 24.8 °F 75% 30.09 in 10.0 mi North 20.7 mph 29.9 mph N/A   Mostly Cloudy
10:15 AM 33.8 °F 21.0 °F 23.0 °F 65% 30.09 in 10.0 mi North 25.3 mph 32.2 mph N/A   Overcast
10:35 AM 33.8 °F 21.6 °F 24.8 °F 70% 30.09 in 10.0 mi North 23.0 mph 32.2 mph N/A   Overcast
10:55 AM 35.6 °F 24.0 °F 24.8 °F 65% 30.09 in 10.0 mi North 23.0 mph 27.6 mph N/A   Mostly Cloudy
11:15 AM 37.4 °F 27.2 °F 24.8 °F 60% 30.10 in 10.0 mi North 19.6 mph 27.6 mph N/A   Mostly Cloudy
11:35 AM 37.4 °F 26.1 °F 24.8 °F 60% 30.10 in 10.0 mi North 24.2 mph 31.1 mph N/A   Mostly Cloudy
11:55 AM 37.4 °F 26.4 °F 23.0 °F 56% 30.10 in 10.0 mi North 23.0 mph 34.5 mph N/A   Mostly Cloudy
12:15 PM 37.4 °F 26.4 °F 23.0 °F 56% 30.10 in 10.0 mi North 23.0 mph 31.1 mph N/A   Overcast
12:35 PM 37.4 °F 26.6 °F 23.0 °F 56% 30.10 in 10.0 mi North 21.9 mph 29.9 mph N/A   Overcast
12:55 PM 39.2 °F 29.6 °F 23.0 °F 52% 30.10 in 10.0 mi North 19.6 mph 31.1 mph N/A   Overcast
1:15 PM 41.0 °F 31.9 °F 23.0 °F 49% 30.09 in 10.0 mi North 19.6 mph 32.2 mph N/A   Overcast
1:35 PM 39.2 °F 29.3 °F 23.0 °F 52% 30.09 in 10.0 mi North 20.7 mph 31.1 mph N/A   Overcast
1:55 PM 41.0 °F 31.1 °F 23.0 °F 49% 30.09 in 10.0 mi NNW 23.0 mph 32.2 mph N/A   Mostly Cloudy
2:15 PM 42.8 °F 33.3 °F 21.2 °F 42% 30.09 in 10.0 mi NNW 24.2 mph 32.2 mph N/A   Mostly Cloudy
2:35 PM 42.8 °F 34.0 °F 21.2 °F 42% 30.09 in 10.0 mi NNW 20.7 mph 33.4 mph N/A   Mostly Cloudy
2:55 PM 42.8 °F 34.3 °F 21.2 °F 42% 30.08 in 10.0 mi NNW 19.6 mph 31.1 mph N/A   Mostly Cloudy
3:15 PM 44.6 °F 36.4 °F 21.2 °F 39% 30.08 in 10.0 mi NNW 20.7 mph 29.9 mph N/A   Mostly Cloudy
3:35 PM 46.4 °F 39.0 °F 21.2 °F 37% 30.08 in 10.0 mi NNW 19.6 mph 34.5 mph N/A   Mostly Cloudy
3:55 PM 44.6 °F 36.6 °F 21.2 °F 39% 30.08 in 10.0 mi NNW 19.6 mph 28.8 mph N/A   Mostly Cloudy
4:15 PM 44.6 °F 37.4 °F 21.2 °F 39% 30.08 in 10.0 mi NNW 16.1 mph 28.8 mph N/A   Scattered Clouds
4:35 PM 46.4 °F 38.1 °F 19.4 °F 34% 30.08 in 10.0 mi NW 24.2 mph 29.9 mph N/A   Scattered Clouds
4:55 PM 46.4 °F 38.3 °F 21.2 °F 37% 30.08 in 10.0 mi NNW 23.0 mph 34.5 mph N/A   Scattered Clouds
5:15 PM 44.6 °F 36.4 °F 19.4 °F 37% 30.08 in 10.0 mi NNW 20.7 mph 32.2 mph N/A   Scattered Clouds
5:35 PM 46.4 °F 38.7 °F 19.4 °F 34% 30.08 in 10.0 mi NNW 20.7 mph 27.6 mph N/A   Scattered Clouds
5:55 PM 46.4 °F 37.9 °F 17.6 °F 32% 30.08 in 10.0 mi North 25.3 mph 32.2 mph N/A   Scattered Clouds
6:15 PM 46.4 °F 38.3 °F 17.6 °F 32% 30.09 in 10.0 mi NNW 23.0 mph - N/A   Scattered Clouds
6:35 PM 46.4 °F 37.9 °F 17.6 °F 32% 30.09 in 10.0 mi NNW 25.3 mph 31.1 mph N/A   Scattered Clouds
6:55 PM 46.4 °F 38.3 °F 15.8 °F 29% 30.10 in 10.0 mi NW 23.0 mph 29.9 mph N/A   Scattered Clouds
7:15 PM 44.6 °F 35.9 °F 14.0 °F 29% 30.10 in 10.0 mi NNW 23.0 mph 29.9 mph N/A   Clear
7:35 PM 44.6 °F 36.1 °F 14.0 °F 29% 30.11 in 10.0 mi NNW 21.9 mph 33.4 mph N/A   Clear
7:55 PM 42.8 °F 34.8 °F 14.0 °F 31% 30.11 in 10.0 mi North 17.3 mph 25.3 mph N/A   Clear
8:35 PM 41.0 °F 34.3 °F 14.0 °F 33% 30.14 in 10.0 mi NNW 11.5 mph - N/A   Clear
10:15 PM 33.8 °F 27.7 °F 17.6 °F 52% 30.19 in 10.0 mi NW 6.9 mph - N/A   Clear
10:35 PM 32.0 °F 24.8 °F 17.6 °F 55% 30.20 in 10.0 mi NW 8.1 mph - N/A   Clear
10:55 PM 32.0 °F 24.8 °F 19.4 °F 60% 30.21 in 10.0 mi NW 8.1 mph - N/A   Clear
11:15 PM 33.8 °F 27.0 °F 19.4 °F 56% 30.21 in 10.0 mi NNW 8.1 mph - N/A   Clear
11:35 PM 33.8 °F 28.6 °F 19.4 °F 56% 30.20 in 10.0 mi NW 5.8 mph - N/A   Clear
11:55 PM 32.0 °F 26.4 °F 19.4 °F 60% 30.20 in 10.0 mi WNW 5.8 mph - N/A   Clear